Needles, CA

10:55 AM PDT on June 23, 2017 (GMT -0700)
Needles

Weather History for KEED - April, 2013

Change the Weather History Date:

Thursday, April 25, 2013

  Actual Average Record
Temperature  
Mean Temperature 74 °F 75 °F  
Max Temperature 88 °F 88 °F 103 °F (1917)
Min Temperature 61 °F 62 °F 44 °F (1909)
Degree Days  
Heating Degree Days 0    
Cooling Degree Days 9    
Growing Degree Days 24 (Base 50)    
Moisture  
Dew Point 21 °F    
Average Humidity 13    
Maximum Humidity 22    
Minimum Humidity 8    
Precipitation  
Precipitation 0.00 in 0.00 in 0.16 in (1999)
Month to date precipitation 0.19  
Year to date precipitation 2.23  
Sea Level Pressure  
Sea Level Pressure 29.79 in    
Wind  
Wind Speed 5 mph (SW)    
Max Wind Speed 12 mph    
Max Gust Speed -    
Visibility 10 miles    
Events      
T = Trace of Precipitation, MM = Missing Value Source: NWS Daily Summary

Daily Weather History Graph

Daily Weather History Graph

Search for Another Location

Airport or City:

Trip Planner

Search our weather history database for the weather conditions in past years. The results will help you decide how hot, cold, wet, or windy it might be!

Date:

Astronomy

Apr. 25, 2013 Rise Set
Actual Time 5:54 AM PDT 7:19 PM PDT
Civil Twilight 5:27 AM PDT 7:45 PM PDT
Nautical Twilight 4:55 AM PDT 8:17 PM PDT
Astronomical Twilight 4:22 AM PDT 8:50 PM PDT
Moon 7:35 PM PDT (4/25) 5:40 AM PDT (4/25)
Length of Visible Light 14h 17m
Length of Day
13h 24m
Full, 100% of the Moon is Illuminated
Apr 25
Full
Apr 25
Full
May 2
Last Quarter
May 9
New
May 17
First Quarter

Hourly Weather History & Observations

Time (PDT) Temp. Dew Point Humidity Pressure Visibility Wind Dir Wind Speed Gust Speed Precip Events Conditions
12:56 AM 69.1 °F 5.0 °F 8% 29.70 in 10.0 mi Calm Calm - N/A   Clear
1:56 AM 68.0 °F 5.0 °F 8% 29.71 in 10.0 mi SW 3.5 mph - N/A   Clear
2:56 AM 63.0 °F 3.9 °F 10% 29.71 in 10.0 mi WNW 4.6 mph - N/A   Clear
3:56 AM 64.0 °F 3.9 °F 9% 29.72 in 10.0 mi NNW 6.9 mph - N/A   Clear
4:56 AM 63.0 °F 9.0 °F 12% 29.73 in 10.0 mi NNW 4.6 mph - N/A   Clear
5:56 AM 61.0 °F 10.0 °F 13% 29.75 in 10.0 mi NW 3.5 mph - N/A   Clear
6:56 AM 64.0 °F 12.0 °F 13% 29.78 in 10.0 mi WSW 5.8 mph - N/A   Clear
7:56 AM 73.0 °F 16.0 °F 11% 29.79 in 10.0 mi ESE 4.6 mph - N/A   Clear
8:56 AM 75.0 °F 14.0 °F 10% 29.81 in 10.0 mi Calm Calm - N/A   Clear
9:56 AM 78.1 °F 16.0 °F 10% 29.81 in 10.0 mi Variable 3.5 mph - N/A   Clear
10:56 AM 81.0 °F 24.1 °F 12% 29.83 in 10.0 mi North 5.8 mph - N/A   Clear
11:56 AM 81.0 °F 23.0 °F 12% 29.82 in 10.0 mi Calm Calm - N/A   Clear
12:56 PM 84.0 °F 28.0 °F 13% 29.80 in 10.0 mi Variable 5.8 mph - N/A   Clear
1:56 PM 84.9 °F 28.0 °F 13% 29.81 in 10.0 mi WSW 10.4 mph - N/A   Clear
2:56 PM 86.0 °F 28.0 °F 12% 29.79 in 10.0 mi SW 9.2 mph - N/A   Clear
3:56 PM 86.0 °F 28.0 °F 12% 29.78 in 10.0 mi South 10.4 mph - N/A   Clear
4:56 PM 87.1 °F 28.0 °F 12% 29.77 in 10.0 mi SSE 10.4 mph - N/A   Clear
5:56 PM 86.0 °F 27.0 °F 12% 29.78 in 10.0 mi Variable 4.6 mph - N/A   Clear
6:56 PM 84.0 °F 28.0 °F 13% 29.79 in 10.0 mi SSW 11.5 mph - N/A   Clear
7:56 PM 81.0 °F 32.0 °F 17% 29.81 in 10.0 mi SSE 6.9 mph - N/A   Clear
8:56 PM 79.0 °F 34.0 °F 20% 29.84 in 10.0 mi South 8.1 mph - N/A   Clear
9:56 PM 77.0 °F 33.1 °F 20% 29.85 in 10.0 mi SSW 4.6 mph - N/A   Clear
10:56 PM 77.0 °F 32.0 °F 19% 29.87 in 10.0 mi SW 6.9 mph - N/A   Clear
11:56 PM 75.9 °F 34.0 °F 22% 29.88 in 10.0 mi SW 10.4 mph - N/A   Clear